{"data":{"norad_id":56360,"epoch":"2026-09-20T22:22:28.140096Z","epoch_age_seconds":71413,"freshness":"FRESH","line1":"1 56360U 23058AV  26263.93227014  .00000230  00000+0  94423-5 0  9996","line2":"2 56360  97.2839 260.7172 0001682  93.2167 266.9269 15.33439510187707","mean_motion":15.3343951,"eccentricity":0.0001682,"inclination_deg":97.2839,"raan_deg":260.7172,"arg_perigee_deg":93.2167,"mean_anomaly_deg":266.9269,"bstar":9.4423e-6,"rev_number":18770,"period_min":93.906540858596,"perigee_km":464.40839915152,"apogee_km":466.71061865712,"semimajor_km":6843.6965089043,"source":"CELESTRAK","updated_at":"2026-09-21T09:00:33.429418Z"}}